| time (UTC) | temp C | wind direction | speed KPH | gust KPH | rain 1hr cm | rain 24hr cm | rain mn cm | humidity % | barometer mb |
| 20260906114304 | 22 | 242 | 0.0 | 0.0 | 0.00 | 0.79 | 0.00 | 76 | 1012.5 |
| 20260906113804 | 21 | 242 | 0.0 | 0.0 | 0.00 | 0.79 | 0.00 | 76 | 1012.5 |
| 20260906113304 | 21 | 242 | 0.0 | 0.0 | 0.00 | 0.79 | 0.00 | 76 | 1012.5 |
| 20260906111804 | 21 | 242 | 0.0 | 0.0 | 0.00 | 0.79 | 0.00 | 76 | 1012.2 |
| 20260906111304 | 21 | 242 | 0.0 | 0.0 | 0.00 | 0.79 | 0.00 | 76 | 1012.1 |
| 20260906110804 | 21 | 242 | 0.0 | 0.0 | 0.00 | 0.79 | 0.00 | 76 | 1012.1 |
| 20260906110304 | 21 | 242 | 0.0 | 4.8 | 0.00 | 0.79 | 0.00 | 76 | 1012.1 |
| 20260906104804 | 21 | 242 | 1.6 | 3.2 | 0.00 | 0.79 | 0.00 | 76 | 1012.1 |
| 20260906103804 | 21 | 242 | 0.0 | 0.0 | 0.00 | 0.79 | 0.00 | 76 | 1012.1 |
| 20260906103304 | 21 | 242 | 0.0 | 0.0 | 0.00 | 0.79 | 0.00 | 76 | 1012.0 |
| 20260906101804 | 21 | 249 | 0.0 | 3.2 | 0.00 | 0.79 | 0.00 | 76 | 1011.9 |
| 20260906101305 | 21 | 249 | 0.0 | 4.8 | 0.00 | 0.79 | 0.00 | 76 | 1012.1 |
| 20260906100805 | 21 | 253 | 3.2 | 4.8 | 0.00 | 0.79 | 0.00 | 76 | 1011.9 |
| 20260906100304 | 21 | 228 | 0.0 | 1.6 | 0.00 | 0.79 | 0.00 | 76 | 1011.9 |
| 20260906094805 | 21 | 228 | 0.0 | 1.6 | 0.00 | 0.79 | 0.00 | 76 | 1011.6 |
| 20260906094304 | 21 | 228 | 0.0 | 1.6 | 0.00 | 0.79 | 0.00 | 76 | 1011.5 |
| 20260906093804 | 21 | 228 | 0.0 | 3.2 | 0.00 | 0.79 | 0.00 | 76 | 1011.4 |
| 20260906093305 | 21 | 228 | 0.0 | 4.8 | 0.00 | 0.79 | 0.00 | 76 | 1011.5 |
| 20260906091804 | 21 | 245 | 1.6 | 3.2 | 0.00 | 0.79 | 0.00 | 76 | 1011.5 |
| 20260906091305 | 21 | 245 | 0.0 | 0.0 | 0.00 | 0.79 | 0.00 | 76 | 1011.5 |
| 20260906090804 | 21 | 245 | 0.0 | 0.0 | 0.00 | 0.79 | 0.00 | 76 | 1011.5 |
| 20260906090304 | 21 | 245 | 0.0 | 0.0 | 0.00 | 0.79 | 0.00 | 76 | 1011.5 |
| 20260906084804 | 21 | 245 | 0.0 | 3.2 | 0.00 | 0.79 | 0.00 | 76 | 1011.4 |
| 20260906084304 | 21 | 245 | 0.0 | 1.6 | 0.00 | 0.79 | 0.00 | 76 | 1011.5 |
| 20260906083804 | 21 | 245 | 0.0 | 0.0 | 0.00 | 0.79 | 0.00 | 76 | 1011.5 |
| 20260906083304 | 21 | 245 | 0.0 | 0.0 | 0.00 | 0.79 | 0.00 | 76 | 1011.4 |
| 20260906081804 | 21 | 245 | 0.0 | 0.0 | 0.00 | 0.79 | 0.00 | 76 | 1011.4 |
| 20260906081303 | 21 | 245 | 0.0 | 0.0 | 0.00 | 0.79 | 0.00 | 76 | 1011.4 |
| 20260906080804 | 21 | 245 | 0.0 | 1.6 | 0.00 | 0.79 | 0.00 | 76 | 1011.5 |
| 20260906080304 | 21 | 245 | 0.0 | 1.6 | 0.00 | 0.79 | 0.00 | 76 | 1011.4 |
| 20260906074805 | 21 | 245 | 0.0 | 0.0 | 0.00 | 0.79 | 0.00 | 76 | 1011.4 |
| 20260906073805 | 21 | 245 | 0.0 | 0.0 | 0.00 | 0.79 | 0.00 | 76 | 1011.4 |
| 20260906073305 | 21 | 245 | 0.0 | 0.0 | 0.00 | 0.79 | 0.00 | 76 | 1011.4 |
| 20260906071804 | 21 | 245 | 0.0 | 0.0 | 0.00 | 0.79 | 0.00 | 76 | 1011.8 |
| 20260906071304 | 22 | 245 | 0.0 | 0.0 | 0.00 | 0.79 | 0.00 | 76 | 1011.8 |
| 20260906070804 | 22 | 245 | 0.0 | 0.0 | 0.00 | 0.79 | 0.00 | 76 | 1011.9 |
| 20260906070304 | 22 | 245 | 0.0 | 0.0 | 0.00 | 0.79 | 0.00 | 76 | 1011.9 |
| 20260906064805 | 22 | 245 | 0.0 | 1.6 | 0.00 | 0.79 | 0.00 | 76 | 1012.0 |
| 20260906064304 | 22 | 245 | 0.0 | 1.6 | 0.00 | 0.79 | 0.00 | 76 | 1012.0 |
| 20260906063804 | 22 | 245 | 0.0 | 3.2 | 0.00 | 0.79 | 0.00 | 76 | 1011.9 |
| 20260906063305 | 22 | 245 | 0.0 | 3.2 | 0.00 | 0.79 | 0.00 | 76 | 1011.9 |
| 20260906061804 | 22 | 241 | 0.0 | 1.6 | 0.00 | 0.79 | 0.00 | 76 | 1011.9 |
| 20260906060803 | 22 | 241 | 1.6 | 1.6 | 0.00 | 0.79 | 0.00 | 76 | 1011.8 |
| 20260906060304 | 22 | 241 | 0.0 | 0.0 | 0.00 | 0.79 | 0.00 | 76 | 1011.9 |
| 20260906054804 | 22 | 241 | 0.0 | 0.0 | 0.00 | 0.79 | 0.00 | 76 | 1011.9 |
| 20260906054304 | 22 | 241 | 0.0 | 1.6 | 0.00 | 0.79 | 0.00 | 76 | 1011.8 |
| 20260906053804 | 22 | 241 | 0.0 | 1.6 | 0.00 | 0.79 | 0.00 | 76 | 1011.9 |
| 20260906053304 | 22 | 241 | 0.0 | 1.6 | 0.00 | 0.79 | 0.00 | 76 | 1011.8 |
| 20260906051804 | 22 | 241 | 0.0 | 1.6 | 0.00 | 0.79 | 0.00 | 76 | 1011.6 |
| 20260906050805 | 22 | 241 | 0.0 | 1.6 | 0.00 | 0.79 | 0.00 | 76 | 1011.6 |
| 20260906050304 | 22 | 241 | 0.0 | 1.6 | 0.00 | 0.79 | 0.00 | 76 | 1011.6 |
| 20260906044804 | 22 | 241 | 0.0 | 0.0 | 0.00 | 0.79 | 0.00 | 76 | 1011.7 |
| 20260906044304 | 22 | 241 | 0.0 | 0.0 | 0.00 | 0.79 | 0.00 | 76 | 1011.7 |
| 20260906043804 | 22 | 241 | 0.0 | 0.0 | 0.00 | 0.79 | 0.00 | 76 | 1011.8 |
| 20260906041803 | 22 | 241 | 0.0 | 0.0 | 0.00 | 0.79 | 0.00 | 76 | 1012.5 |
| 20260906041304 | 22 | 241 | 0.0 | 0.0 | 0.00 | 0.79 | 0.00 | 76 | 1012.5 |
| 20260906040304 | 22 | 241 | 0.0 | 0.0 | 0.00 | 0.79 | 0.00 | 76 | 1012.9 |
| 20260906034804 | 22 | 241 | 0.0 | 0.0 | 0.00 | 0.79 | 1.45 | 76 | 1012.8 |
| 20260906033804 | 22 | 241 | 0.0 | 0.0 | 0.03 | 0.79 | 1.45 | 76 | 1012.9 |
| 20260906033305 | 22 | 241 | 0.0 | 0.0 | 0.03 | 0.79 | 1.45 | 76 | 1012.7 |
| 20260906031804 | 22 | 241 | 0.0 | 1.6 | 0.03 | 0.79 | 1.45 | 76 | 1012.9 |
| 20260906031303 | 22 | 241 | 0.0 | 1.6 | 0.03 | 0.79 | 1.45 | 76 | 1012.9 |
| 20260906030804 | 22 | 241 | 0.0 | 1.6 | 0.03 | 0.79 | 1.45 | 76 | 1013.2 |
| 20260906024804 | 22 | 241 | 0.0 | 4.8 | 0.03 | 0.79 | 1.45 | 76 | 1013.2 |
| 20260906024303 | 22 | 241 | 0.0 | 4.8 | 0.00 | 0.76 | 1.42 | 76 | 1013.2 |
| 20260906023804 | 22 | 241 | 1.6 | 4.8 | 0.00 | 0.76 | 1.42 | 76 | 1013.4 |
| 20260906023303 | 22 | 241 | 0.0 | 1.6 | 0.00 | 0.76 | 1.42 | 76 | 1012.8 |
| 20260906021804 | 22 | 241 | 0.0 | 4.8 | 0.00 | 0.76 | 1.42 | 76 | 1012.8 |
| 20260906020804 | 22 | 249 | 3.2 | 9.7 | 0.00 | 0.76 | 1.42 | 76 | 1012.8 |
| 20260906020304 | 22 | 243 | 4.8 | 9.7 | 0.00 | 0.76 | 1.42 | 76 | 1012.8 |
| 20260906014804 | 22 | 148 | 3.2 | 9.7 | 0.00 | 0.76 | 1.42 | 76 | 1012.8 |
| 20260906014304 | 22 | 164 | 3.2 | 8.0 | 0.00 | 0.76 | 1.42 | 76 | 1012.8 |
| 20260906013804 | 22 | 166 | 3.2 | 11.3 | 0.00 | 0.76 | 1.42 | 76 | 1012.9 |
| 20260906013303 | 22 | 161 | 4.8 | 11.3 | 0.00 | 0.76 | 1.42 | 76 | 1013.0 |
| 20260906011804 | 22 | 140 | 0.0 | 9.7 | 0.00 | 0.76 | 1.42 | 76 | 1012.9 |
| 20260906010804 | 22 | 124 | 1.6 | 8.0 | 0.00 | 0.76 | 1.42 | 76 | 1012.3 |
| 20260906010305 | 22 | 43 | 3.2 | 4.8 | 0.00 | 0.76 | 1.42 | 76 | 1012.1 |
| 20260906004804 | 22 | 35 | 0.0 | 0.0 | 0.00 | 0.76 | 1.42 | 76 | 1011.6 |
| 20260906004304 | 22 | 35 | 0.0 | 1.6 | 0.00 | 0.76 | 1.42 | 76 | 1011.7 |
| 20260906003804 | 22 | 35 | 0.0 | 1.6 | 0.00 | 0.76 | 1.42 | 76 | 1011.7 |
| 20260906003304 | 22 | 35 | 0.0 | 1.6 | 0.03 | 0.76 | 1.42 | 76 | 1011.7 |
| 20260906001804 | 22 | 35 | 0.0 | 3.2 | 0.08 | 0.76 | 1.42 | 76 | 1011.8 |
| 20260906001303 | 22 | 35 | 1.6 | 3.2 | 0.15 | 0.76 | 1.42 | 76 | 1011.7 |
| 20260906000804 | 22 | 35 | 0.0 | 0.0 | 0.25 | 0.76 | 1.42 | 76 | 1011.7 |
| 20260906000304 | 21 | 35 | 0.0 | 0.0 | 0.30 | 0.76 | 1.42 | 76 | 1011.8 |
| 20260905234804 | 21 | 35 | 0.0 | 1.6 | 1.30 | 0.76 | 1.42 | 76 | 1011.8 |
| 20260905234303 | 21 | 35 | 0.0 | 1.6 | 1.40 | 0.76 | 1.42 | 76 | 1011.8 |
| 20260905233804 | 21 | 35 | 0.0 | 3.2 | 1.42 | 0.76 | 1.42 | 76 | 1012.0 |
| 20260905233304 | 21 | 35 | 0.0 | 4.8 | 1.40 | 0.74 | 1.40 | 76 | 1012.0 |
| 20260905231803 | 21 | 110 | 0.0 | 9.7 | 1.32 | 0.69 | 1.32 | 76 | 1013.0 |
| 20260905231305 | 21 | 95 | 3.2 | 27.4 | 1.24 | 0.61 | 1.24 | 76 | 1013.3 |
| 20260905224805 | 23 | 47 | 9.7 | 48.3 | 0.38 | 0.38 | 0.38 | 76 | 1013.1 |
| 20260905224305 | 26 | 107 | 16.1 | 48.3 | 0.13 | 0.13 | 0.13 | 76 | 1012.6 |
| 20260905223305 | 30 | 352 | 1.6 | 8.0 | 0.00 | 0.00 | 0.00 | 76 | 1012.0 |
| 20260905221805 | 30 | 266 | 0.0 | 8.0 | 0.00 | 0.00 | 0.00 | 76 | 1011.3 |
| 20260905221304 | 30 | 253 | 0.0 | 14.5 | 0.00 | 0.00 | 0.00 | 76 | 1011.4 |
| 20260905220805 | 30 | 272 | 8.0 | 16.1 | 0.00 | 0.00 | 0.00 | 76 | 1011.2 |
| 20260905220304 | 30 | 230 | 3.2 | 16.1 | 0.00 | 0.00 | 0.00 | 76 | 1010.9 |
| 20260905214804 | 31 | 260 | 4.8 | 12.9 | 0.00 | 0.00 | 0.00 | 76 | 1010.5 |
| 20260905214304 | 31 | 243 | 3.2 | 9.7 | 0.00 | 0.00 | 0.00 | 76 | 1010.3 |
| 20260905213805 | 31 | 260 | 3.2 | 8.0 | 0.00 | 0.00 | 0.00 | 76 | 1010.6 |
| 20260905213304 | 32 | 252 | 3.2 | 12.9 | 0.00 | 0.00 | 0.00 | 76 | 1010.6 |
| 20260905211805 | 32 | 249 | 3.2 | 9.7 | 0.00 | 0.00 | 0.00 | 76 | 1010.7 |
| 20260905210805 | 32 | 271 | 3.2 | 9.7 | 0.00 | 0.00 | 0.00 | 76 | 1010.7 |
| 20260905210304 | 32 | 237 | 3.2 | 9.7 | 0.00 | 0.00 | 0.00 | 76 | 1010.8 |
| 20260905204805 | 32 | 232 | 3.2 | 12.9 | 0.00 | 0.00 | 0.00 | 76 | 1010.2 |
| 20260905204305 | 32 | 249 | 6.4 | 12.9 | 0.00 | 0.00 | 0.00 | 76 | 1010.4 |
| 20260905203805 | 32 | 266 | 4.8 | 12.9 | 0.00 | 0.00 | 0.00 | 76 | 1010.5 |
| 20260905203305 | 32 | 248 | 4.8 | 12.9 | 0.00 | 0.00 | 0.00 | 76 | 1010.6 |
| 20260905201805 | 32 | 276 | 4.8 | 12.9 | 0.00 | 0.00 | 0.00 | 76 | 1010.7 |
| 20260905201304 | 32 | 274 | 4.8 | 12.9 | 0.00 | 0.00 | 0.00 | 76 | 1010.6 |
| 20260905200805 | 32 | 285 | 1.6 | 12.9 | 0.00 | 0.00 | 0.00 | 76 | 1010.7 |
| 20260905200304 | 32 | 244 | 3.2 | 12.9 | 0.00 | 0.00 | 0.00 | 76 | 1010.6 |
| 20260905194805 | 33 | 273 | 6.4 | 12.9 | 0.00 | 0.00 | 0.00 | 76 | 1010.7 |
| 20260905194304 | 33 | 260 | 1.6 | 12.9 | 0.00 | 0.00 | 0.00 | 76 | 1010.7 |
| 20260905193805 | 33 | 255 | 4.8 | 11.3 | 0.00 | 0.00 | 0.00 | 76 | 1010.6 |
| 20260905193304 | 33 | 246 | 4.8 | 12.9 | 0.00 | 0.00 | 0.00 | 76 | 1010.8 |
| 20260905191805 | 33 | 258 | 9.7 | 16.1 | 0.00 | 0.00 | 0.00 | 76 | 1011.1 |
| 20260905191305 | 33 | 258 | 3.2 | 12.9 | 0.00 | 0.00 | 0.00 | 76 | 1011.2 |
| 20260905184805 | 34 | 283 | 6.4 | 16.1 | 0.00 | 0.00 | 0.00 | 76 | 1011.7 |
| 20260905184304 | 34 | 257 | 6.4 | 16.1 | 0.00 | 0.00 | 0.00 | 76 | 1011.8 |
| 20260905183805 | 34 | 269 | 1.6 | 8.0 | 0.00 | 0.00 | 0.00 | 76 | 1011.8 |
| 20260905183304 | 34 | 256 | 3.2 | 9.7 | 0.00 | 0.00 | 0.00 | 76 | 1012.0 |
| 20260905181805 | 34 | 80 | 3.2 | 8.0 | 0.00 | 0.00 | 0.00 | 76 | 1012.1 |
| 20260905181304 | 35 | 114 | 4.8 | 8.0 | 0.00 | 0.00 | 0.00 | 76 | 1012.2 |
| 20260905180805 | 35 | 20 | 1.6 | 4.8 | 0.00 | 0.00 | 0.00 | 76 | 1012.2 |
| 20260905180304 | 34 | 79 | 1.6 | 8.0 | 0.00 | 0.00 | 0.00 | 76 | 1012.3 |
| 20260905174304 | 34 | 270 | 1.6 | 8.0 | 0.00 | 0.00 | 0.00 | 76 | 1012.5 |
| 20260905171805 | 34 | 113 | 3.2 | 8.0 | 0.00 | 0.00 | 0.00 | 76 | 1012.7 |
| 20260905171304 | 34 | 48 | 1.6 | 4.8 | 0.00 | 0.00 | 0.00 | 76 | 1012.8 |
| 20260905170805 | 34 | 296 | 1.6 | 9.7 | 0.00 | 0.00 | 0.00 | 76 | 1012.9 |
| 20260905170304 | 33 | 89 | 1.6 | 9.7 | 0.00 | 0.00 | 0.00 | 76 | 1013.0 |
| 20260905164805 | 33 | 260 | 3.2 | 9.7 | 0.00 | 0.00 | 0.00 | 76 | 1013.2 |
| 20260905164304 | 33 | 41 | 3.2 | 12.9 | 0.00 | 0.00 | 0.00 | 76 | 1013.3 |
| 20260905163805 | 33 | 72 | 4.8 | 12.9 | 0.00 | 0.00 | 0.00 | 76 | 1013.3 |
| 20260905163304 | 33 | 108 | 4.8 | 8.0 | 0.00 | 0.00 | 0.00 | 76 | 1013.4 |
| 20260905161804 | 33 | 48 | 4.8 | 11.3 | 0.00 | 0.00 | 0.00 | 76 | 1013.6 |
| 20260905161305 | 33 | 111 | 3.2 | 8.0 | 0.00 | 0.00 | 0.00 | 76 | 1013.7 |
| 20260905160804 | 33 | 8 | 3.2 | 4.8 | 0.00 | 0.00 | 0.00 | 76 | 1013.6 |
| 20260905160305 | 33 | 292 | 3.2 | 11.3 | 0.00 | 0.00 | 0.00 | 76 | 1013.8 |
| 20260905154804 | 32 | 117 | 4.8 | 9.7 | 0.00 | 0.00 | 0.00 | 76 | 1014.2 |
| 20260905154304 | 32 | 16 | 1.6 | 9.7 | 0.00 | 0.00 | 0.00 | 76 | 1014.1 |
| 20260905153804 | 32 | 116 | 1.6 | 9.7 | 0.00 | 0.00 | 0.00 | 76 | 1014.1 |
| 20260905151305 | 32 | 100 | 3.2 | 8.0 | 0.00 | 0.00 | 0.00 | 76 | 1014.4 |
| 20260905150805 | 32 | 135 | 4.8 | 9.7 | 0.00 | 0.00 | 0.00 | 76 | 1014.6 |
| 20260905150305 | 32 | 33 | 4.8 | 9.7 | 0.00 | 0.00 | 0.00 | 76 | 1014.5 |
| 20260905144805 | 31 | 31 | 1.6 | 11.3 | 0.00 | 0.00 | 0.00 | 76 | 1014.6 |
| 20260905144304 | 31 | 23 | 1.6 | 11.3 | 0.00 | 0.00 | 0.00 | 76 | 1014.5 |
| 20260905143805 | 31 | 38 | 4.8 | 11.3 | 0.00 | 0.00 | 0.00 | 76 | 1014.6 |
| 20260905143305 | 31 | 137 | 3.2 | 9.7 | 0.00 | 0.00 | 0.00 | 76 | 1014.5 |
| 20260905141804 | 30 | 255 | 3.2 | 8.0 | 0.00 | 0.00 | 0.00 | 76 | 1014.6 |
| 20260905141304 | 30 | 163 | 1.6 | 8.0 | 0.00 | 0.00 | 0.00 | 76 | 1014.7 |
| 20260905140805 | 30 | 31 | 1.6 | 11.3 | 0.00 | 0.00 | 0.00 | 76 | 1014.8 |
| 20260905140304 | 30 | 354 | 3.2 | 11.3 | 0.00 | 0.00 | 0.00 | 76 | 1014.8 |
| 20260905134804 | 29 | 102 | 4.8 | 12.9 | 0.00 | 0.00 | 0.00 | 76 | 1014.8 |
| 20260905133804 | 28 | 42 | 3.2 | 9.7 | 0.00 | 0.00 | 0.00 | 76 | 1014.9 |
| 20260905133305 | 28 | 36 | 1.6 | 12.9 | 0.00 | 0.00 | 0.00 | 76 | 1014.8 |
| 20260905131805 | 27 | 139 | 1.6 | 8.0 | 0.00 | 0.00 | 0.00 | 76 | 1014.9 |
| 20260905131305 | 27 | 71 | 0.0 | 8.0 | 0.00 | 0.00 | 0.00 | 76 | 1014.8 |
| 20260905130804 | 27 | 136 | 3.2 | 8.0 | 0.00 | 0.00 | 0.00 | 76 | 1014.9 |
| 20260905130304 | 26 | 102 | 1.6 | 4.8 | 0.00 | 0.00 | 0.00 | 76 | 1014.9 |
| 20260905124805 | 26 | 76 | 1.6 | 9.7 | 0.00 | 0.00 | 0.00 | 76 | 1014.9 |
| 20260905124304 | 26 | 18 | 3.2 | 11.3 | 0.00 | 0.00 | 0.00 | 76 | 1015.0 |
| 20260905123804 | 26 | 71 | 1.6 | 11.3 | 0.00 | 0.00 | 0.00 | 76 | 1014.9 |
| 20260905123304 | 26 | 230 | 1.6 | 8.0 | 0.00 | 0.00 | 0.00 | 76 | 1014.9 |
| 20260905121804 | 25 | 108 | 0.0 | 11.3 | 0.00 | 0.00 | 0.00 | 76 | 1014.8 |
| 20260905121304 | 25 | 316 | 1.6 | 4.8 | 0.00 | 0.00 | 0.00 | 76 | 1014.9 |
| 20260905120805 | 25 | 37 | 0.0 | 8.0 | 0.00 | 0.00 | 0.00 | 76 | 1014.9 |
| 20260905120304 | 25 | 37 | 1.6 | 8.0 | 0.00 | 0.00 | 0.00 | 76 | 1014.9 |
| 20260905114804 | 25 | 59 | 1.6 | 8.0 | 0.00 | 0.00 | 0.00 | 76 | 1014.7 |